Location: Erfurt
(50.9830°N, 11.0330°E)
Time: 23:36:13
(UTC+01:00)

ISS - Visible Passes

Search period start: 21 January 2018 00:00
Search period end: 31 January 2018 00:00
Orbit: 402 x 407 km, 51.6° (Epoch: 22 January)

Date Brightness Start Highest point End Pass type
(mag) Time Alt. Az. Time Alt. Az. Time Alt. Az.
26 Jan -1.7 18:54:57 10° S 18:56:24 17° SSE 18:56:24 17° SSE visible
27 Jan -1.5 18:03:57 10° SSE 18:05:13 12° SE 18:06:25 10° ESE visible
27 Jan -1.4 19:37:55 10° SW 19:39:05 20° SW 19:39:05 20° SW visible
28 Jan -2.9 18:45:51 10° SW 18:48:49 32° SSE 18:49:02 32° SE visible
29 Jan -2.1 17:54:02 10° SSW 17:56:35 21° SE 17:58:54 11° E visible
29 Jan -2.4 19:29:27 10° WSW 19:31:34 37° WSW 19:31:34 37° WSW visible
30 Jan -3.5 18:37:10 10° SW 18:40:22 54° SSE 18:41:23 36° E visible
30 Jan -0.5 20:13:31 10° W 20:14:02 14° W 20:14:02 14° W visible
